DW9936 Weather Reports


Display with metric or nautical units.
time (UTC)temp
F
wind
direction
speed
MPH
gust
MPH
rain 1hr
in
rain 24hr
in
rain mn
in
humidity
%
barometer
mb
20260504001530 52 152 0.0 0.0 0.00 0.00 0.00 72 1013.1
20260504000028 52 152 0.0 0.0 0.00 0.00 0.00 71 1013.1
20260503234527 52 152 0.0 0.0 0.00 0.00 0.00 71 1013.1
20260503233025 53 152 0.0 0.0 0.00 0.00 0.00 70 1013.2
20260503231522 53 152 0.0 0.0 0.00 0.00 0.00 69 1013.1
20260503230023 54 152 0.0 0.0 0.00 0.00 0.00 68 1013.1
20260503224516 55 152 0.0 0.0 0.00 0.00 0.00 68 1013.2
20260503223014 55 152 0.0 0.0 0.00 0.00 0.00 66 1013.2
20260503221513 56 152 0.0 0.0 0.00 0.00 0.00 63 1013.3
20260503220008 57 152 0.0 0.0 0.00 0.00 0.00 60 1013.2
20260503214506 58 152 0.0 0.0 0.00 0.00 0.00 58 1013.3
20260503213015 58 152 0.0 0.0 0.00 0.00 0.00 57 1013.3
20260503211514 59 152 0.0 0.0 0.00 0.00 0.00 56 1013.4
20260503210006 60 152 0.0 0.0 0.00 0.00 0.00 54 1013.5
20260503204505 61 152 0.0 1.0 0.00 0.00 0.00 53 1013.5
20260503203005 62 150 0.0 0.0 0.00 0.00 0.00 51 1013.5
20260503201509 63 141 0.0 1.0 0.00 0.00 0.00 50 1013.6
20260503200004 64 136 0.0 1.0 0.00 0.00 0.00 49 1013.6
20260503194504 65 142 0.0 1.0 0.00 0.00 0.00 47 1013.6
20260503193003 66 138 0.0 0.0 0.00 0.00 0.00 46 1013.6
20260503191503 66 99 0.0 1.0 0.00 0.00 0.00 46 1013.6
20260503190002 67 105 0.0 1.0 0.00 0.00 0.00 45 1013.6
20260503184502 67 86 0.0 0.0 0.00 0.00 0.00 45 1013.5
20260503183000 68 84 0.0 0.0 0.00 0.00 0.00 44 1013.2
20260503181504 70 84 0.0 0.0 0.00 0.00 0.00 42 1013.1
20260503180135 72 84 0.0 3.0 0.00 0.00 0.00 40 1013.0
20260503174601 73 98 0.0 2.0 0.00 0.00 0.00 38 1013.0
20260503173103 74 38 0.0 6.0 0.00 0.00 0.00 37 1012.9
20260503171559 75 129 0.0 9.0 0.00 0.00 0.00 37 1012.9
20260503170104 75 153 0.0 6.0 0.00 0.00 0.00 36 1012.9
20260503081543 67 130 1.0 5.0 0.00 0.00 0.00 47 1018.2
20260503071531 64 57 0.0 3.0 0.00 0.00 0.00 52 1018.4
20260503054600 55 323 0.0 0.0 0.00 0.00 0.00 64 1018.3
20260503053056 52 323 0.0 0.0 0.00 0.00 0.00 71 1018.3
20260503051552 48 323 0.0 0.0 0.00 0.00 0.00 76 1018.3
20260503050051 45 323 0.0 0.0 0.00 0.00 0.00 81 1018.4
20260503044617 43 323 0.0 0.0 0.00 0.00 0.00 83 1018.4
20260503043046 42 323 0.0 0.0 0.00 0.00 0.00 83 1018.3
20260503041548 42 323 0.0 0.0 0.00 0.00 0.00 82 1018.3
20260503040043 42 323 0.0 0.0 0.00 0.00 0.00 81 1018.3
20260503034540 42 323 0.0 0.0 0.00 0.00 0.00 81 1018.2
20260503033040 43 323 0.0 0.0 0.00 0.00 0.00 81 1018.1
20260503031540 43 323 0.0 0.0 0.00 0.00 0.00 80 1017.9
20260503030041 43 323 0.0 0.0 0.00 0.00 0.00 80 1017.9
20260503024536 43 323 0.0 0.0 0.00 0.00 0.00 80 1017.8
20260503023040 43 323 0.0 0.0 0.00 0.00 0.00 79 1017.8
20260503021533 44 323 0.0 0.0 0.00 0.00 0.00 79 1017.9
20260503020036 44 323 0.0 0.0 0.00 0.00 0.00 79 1017.9
20260503014530 44 323 0.0 0.0 0.00 0.00 0.00 78 1018.0
20260503013029 44 323 0.0 0.0 0.00 0.00 0.00 78 1018.0
20260503011528 45 323 0.0 0.0 0.00 0.00 0.00 77 1018.1
20260503010025 45 323 0.0 0.0 0.00 0.00 0.00 76 1018.2
20260503004522 46 323 0.0 0.0 0.00 0.00 0.00 75 1018.2
20260503003030 46 323 0.0 0.0 0.00 0.00 0.00 74 1018.3